Weather History for KACY - October, 2014

Change the Weather History Date:

Wednesday, October 1, 2014

  Actual Average Record
Temperature  
Mean Temperature 66 °F 61 °F  
Max Temperature 70 °F 72 °F 90 °F (1941)
Min Temperature 61 °F 51 °F 36 °F (1993)
Degree Days  
Heating Degree Days 0 5  
Month to date heating degree days 0 5  
Since 1 July heating degree days 38 67  
Cooling Degree Days 1 2  
Month to date cooling degree days 1 2  
Year to date cooling degree days 843 1036  
Growing Degree Days 16 (Base 50)    
Moisture  
Dew Point 61 °F    
Average Humidity 89    
Maximum Humidity 100    
Minimum Humidity 78    
Precipitation  
Precipitation 0.01 in 0.11 in 1.26 in (1958)
Month to date precipitation 0.01 0.11  
Year to date precipitation 40.25 31.48  
Snow  
Snow 0.00 in 0.00 in 0.00 in (1903)
Month to date snowfall 0.0 0.0  
Since 1 July snowfall 0.0 0.0  
Since 1 September snowfall 0.0 0.0  
Snow Depth 0.00 in    
Sea Level Pressure  
Sea Level Pressure 30.00 in    
Wind  
Wind Speed 9 mph (North)    
Max Wind Speed 16 mph    
Max Gust Speed 19 mph    
Visibility 9 miles    
Events Rain    
T = Trace of Precipitation, MM = Missing Value Source: NWS Daily Summary

Daily Weather History Graph

Daily Weather History Graph

Search for Another Location

Airport or City:

Trip Planner

Search our weather history database for the weather conditions in past years. The results will help you decide how hot, cold, wet, or windy it might be!

Date:

Astronomy

Oct. 01, 2014 Rise Set
Actual Time 6:54 AM EDT 6:40 PM EDT
Civil Twilight 6:27 AM EDT 7:07 PM EDT
Nautical Twilight 5:56 AM EDT 7:38 PM EDT
Astronomical Twilight 5:24 AM EDT 8:10 PM EDT
Moon 1:51 PM EDT (10/1) No Moon Set
Length of Visible Light 12h 40m
Length of Day
11h 46m
Waxing Crescent, 48% of the Moon is Illuminated
Oct 1
Waxing Crescent
Oct 1
First Quarter
Oct 8
Full
Oct 15
Last Quarter
Oct 23
New

Hourly Weather History & Observations

Time (EDT) Temp. Dew Point Humidity Pressure Visibility Wind Dir Wind Speed Gust Speed Precip Events Conditions
12:08 AM 61.0 °F 60.1 °F 97% 29.95 in 10.0 mi North 5.8 mph - N/A   Overcast
12:19 AM 62.1 °F 60.1 °F 93% 29.95 in 8.0 mi North 6.9 mph - 0.00 in Rain Light Rain
12:32 AM 62.1 °F 61.0 °F 96% 29.95 in 10.0 mi North 6.9 mph - 0.00 in   Mostly Cloudy
12:54 AM 62.1 °F 61.0 °F 96% 29.94 in 10.0 mi North 6.9 mph - 0.00 in Rain Light Rain
1:08 AM 62.1 °F 61.0 °F 96% 29.94 in 10.0 mi North 6.9 mph - 0.00 in   Overcast
1:54 AM 63.0 °F 62.1 °F 97% 29.95 in 10.0 mi North 8.1 mph - 0.00 in   Overcast
2:12 AM 63.0 °F 62.1 °F 97% 29.95 in 10.0 mi North 8.1 mph - N/A   Overcast
2:35 AM 63.0 °F 62.1 °F 97% 29.95 in 10.0 mi North 8.1 mph - 0.00 in Rain Light Rain
2:54 AM 63.0 °F 62.1 °F 97% 29.95 in 10.0 mi North 6.9 mph - 0.00 in   Overcast
3:15 AM 63.0 °F 62.1 °F 97% 29.95 in 10.0 mi North 9.2 mph - N/A   Overcast
3:27 AM 63.0 °F 62.1 °F 97% 29.95 in 10.0 mi North 9.2 mph - N/A   Overcast
3:39 AM 63.0 °F 62.1 °F 97% 29.95 in 10.0 mi North 8.1 mph - N/A   Overcast
3:54 AM 63.0 °F 62.1 °F 97% 29.94 in 10.0 mi North 9.2 mph - N/A   Overcast
4:54 AM 62.6 °F 62.6 °F 100% 29.95 in 10.0 mi NNE 10.4 mph - N/A Rain Light Rain
5:54 AM 62.1 °F 61.0 °F 96% 29.96 in 4.0 mi NNE 10.4 mph - 0.00 in   Overcast
6:54 AM 61.0 °F 61.0 °F 100% 29.97 in 10.0 mi NNE 10.4 mph - N/A   Overcast
7:54 AM 62.1 °F 61.0 °F 96% 29.99 in 10.0 mi NNE 8.1 mph - N/A   Overcast
8:54 AM 63.0 °F 61.0 °F 93% 30.00 in 10.0 mi NE 10.4 mph - N/A   Overcast
9:39 AM 64.0 °F 61.0 °F 90% 30.02 in 10.0 mi North 8.1 mph - N/A   Overcast
9:54 AM 64.0 °F 61.0 °F 90% 30.02 in 9.0 mi NNE 8.1 mph - N/A   Overcast
9:57 AM 64.0 °F 61.0 °F 90% 30.02 in 6.0 mi North 6.9 mph - N/A   Overcast
10:05 AM 64.0 °F 62.1 °F 93% 30.02 in 2.0 mi NNE 6.9 mph - 0.00 in Rain Light Rain
10:17 AM 64.0 °F 62.1 °F 93% 30.03 in 3.0 mi North 6.9 mph - 0.00 in   Overcast
10:24 AM 63.0 °F 62.1 °F 97% 30.03 in 3.0 mi North 6.9 mph - 0.00 in   Overcast
10:51 AM 62.6 °F 60.8 °F 94% 30.03 in 2.0 mi North 10.4 mph - 0.01 in Rain Light Rain
10:54 AM 63.0 °F 61.0 °F 93% 30.03 in 2.5 mi NNE 10.4 mph - 0.01 in Rain Light Rain
11:02 AM 64.0 °F 62.1 °F 93% 30.03 in 5.0 mi NNE 6.9 mph - 0.00 in   Overcast
11:24 AM 64.9 °F 61.0 °F 87% 30.03 in 9.0 mi North 11.5 mph - 0.00 in   Overcast
11:39 AM 66.0 °F 62.1 °F 87% 30.03 in 10.0 mi NNE 10.4 mph - 0.00 in   Overcast
11:50 AM 64.4 °F 60.8 °F 88% 30.03 in 10.0 mi North 10.4 mph - 0.00 in   Overcast
11:54 AM 64.9 °F 60.1 °F 84% 30.03 in 10.0 mi North 10.4 mph - 0.00 in   Overcast
12:09 PM 66.0 °F 61.0 °F 84% 30.03 in 10.0 mi North 8.1 mph - N/A   Overcast
12:54 PM 66.9 °F 61.0 °F 81% 30.02 in 10.0 mi North 8.1 mph - 0.00 in   Overcast
1:38 PM 70.0 °F 61.0 °F 73% 30.01 in 10.0 mi NNE 9.2 mph - N/A   Overcast
1:54 PM 66.9 °F 60.1 °F 79% 30.00 in 10.0 mi NNE 11.5 mph - N/A   Overcast
2:54 PM 66.9 °F 59.0 °F 76% 30.00 in 10.0 mi NNE 13.8 mph 19.6 mph N/A   Overcast
3:54 PM 64.9 °F 61.0 °F 87% 30.01 in 10.0 mi NNE 8.1 mph - 0.00 in   Overcast
4:01 PM 66.0 °F 62.1 °F 87% 30.00 in 10.0 mi NNE 11.5 mph - N/A   Overcast
4:54 PM 66.0 °F 60.1 °F 81% 30.01 in 10.0 mi North 11.5 mph - N/A   Overcast
5:54 PM 64.0 °F 60.1 °F 87% 30.02 in 10.0 mi North 6.9 mph - 0.00 in   Overcast
6:07 PM 64.0 °F 59.0 °F 84% 30.02 in 10.0 mi NNE 6.9 mph - N/A   Overcast
6:23 PM 64.0 °F 60.1 °F 87% 30.03 in 10.0 mi Variable 3.5 mph - N/A   Overcast
6:54 PM 64.0 °F 60.1 °F 87% 30.03 in 10.0 mi North 3.5 mph - N/A   Overcast
7:24 PM 63.0 °F 60.1 °F 90% 30.03 in 10.0 mi North 4.6 mph - N/A   Overcast
7:54 PM 63.0 °F 60.1 °F 90% 30.04 in 10.0 mi North 5.8 mph - N/A   Overcast
8:30 PM 63.0 °F 60.1 °F 90% 30.05 in 10.0 mi North 6.9 mph - N/A   Overcast
8:54 PM 62.1 °F 60.1 °F 93% 30.04 in 10.0 mi North 6.9 mph - N/A   Overcast
9:44 PM 62.1 °F 60.1 °F 93% 30.05 in 10.0 mi North 6.9 mph - N/A   Overcast
9:54 PM 62.1 °F 59.0 °F 90% 30.06 in 10.0 mi North 5.8 mph - N/A   Overcast
10:14 PM 62.1 °F 59.0 °F 90% 30.06 in 10.0 mi North 5.8 mph - N/A   Overcast
10:54 PM 62.1 °F 59.0 °F 90% 30.06 in 10.0 mi North 5.8 mph - N/A   Overcast
11:08 PM 62.1 °F 59.0 °F 90% 30.06 in 10.0 mi North 4.6 mph - N/A   Overcast
11:38 PM 61.0 °F 60.1 °F 97% 29.95 in 10.0 mi North 6.9 mph - N/A   Mostly Cloudy
11:54 PM 62.1 °F 59.0 °F 90% 30.06 in 10.0 mi North 5.8 mph - N/A   Overcast